TimeMDT,TemperatureF,Dew PointF,Humidity,Sea Level PressureIn,VisibilityMPH,Wind Direction,Wind SpeedMPH,Gust SpeedMPH,PrecipitationIn,Events,Conditions,WindDirDegrees,DateUTC
12:53 AM,54.0,36.0,51,29.51,10.0,SW,21.9,28.8,N/A,,Clear,220,2012-10-20 06:53:00
1:53 AM,53.1,36.0,52,29.49,10.0,SW,25.3,35.7,N/A,,Clear,220,2012-10-20 07:53:00
2:53 AM,53.1,36.0,52,29.47,10.0,SW,25.3,35.7,N/A,,Clear,220,2012-10-20 08:53:00
3:53 AM,52.0,36.0,54,29.45,10.0,SW,23.0,31.1,N/A,,Clear,220,2012-10-20 09:53:00
4:53 AM,53.1,35.1,50,29.47,10.0,SW,23.0,29.9,N/A,,Clear,220,2012-10-20 10:53:00
5:53 AM,48.9,35.1,59,29.48,10.0,WSW,15.0,-,N/A,,Clear,250,2012-10-20 11:53:00
6:53 AM,50.0,37.0,61,29.49,10.0,WSW,21.9,31.1,N/A,,Clear,250,2012-10-20 12:53:00
7:53 AM,48.9,35.1,59,29.52,10.0,WSW,17.3,26.5,N/A,,Clear,240,2012-10-20 13:53:00
8:53 AM,50.0,35.1,57,29.53,10.0,WSW,23.0,29.9,N/A,,Clear,240,2012-10-20 14:53:00
9:53 AM,53.1,30.0,41,29.54,10.0,WSW,24.2,35.7,N/A,,Clear,250,2012-10-20 15:53:00
10:53 AM,55.9,27.0,33,29.52,10.0,WSW,25.3,39.1,N/A,,Clear,240,2012-10-20 16:53:00
11:53 AM,55.9,27.0,33,29.52,10.0,WSW,31.1,44.9,N/A,,Clear,240,2012-10-20 17:53:00
12:53 PM,57.2,26.6,31,29.56,10.0,WSW,36.8,44.9,N/A,,Clear,240,2012-10-20 18:53:00
1:53 PM,55.9,27.0,33,29.55,10.0,WSW,31.1,41.4,N/A,,Clear,240,2012-10-20 19:53:00
2:53 PM,55.9,23.0,28,29.55,10.0,WSW,29.9,48.3,N/A,,Clear,250,2012-10-20 20:53:00
3:53 PM,54.0,21.9,29,29.60,10.0,WSW,33.4,47.2,N/A,,Clear,250,2012-10-20 21:53:00
4:53 PM,50.0,24.1,36,29.65,10.0,West,27.6,34.5,N/A,,Partly Cloudy,260,2012-10-20 22:53:00
5:53 PM,46.9,19.9,34,29.69,10.0,West,25.3,36.8,N/A,,Clear,270,2012-10-20 23:53:00
6:53 PM,41.0,18.0,40,29.75,10.0,WSW,12.7,-,N/A,,Clear,250,2012-10-21 00:53:00
7:53 PM,37.9,15.1,39,29.78,10.0,WSW,11.5,-,N/A,,Clear,250,2012-10-21 01:53:00
8:53 PM,35.1,18.0,50,29.81,10.0,SSW,10.4,-,N/A,,Clear,210,2012-10-21 02:53:00
9:53 PM,33.1,19.0,56,29.83,10.0,SSW,9.2,-,N/A,,Clear,210,2012-10-21 03:53:00
10:53 PM,32.0,19.9,61,29.84,10.0,South,5.8,-,N/A,,Clear,170,2012-10-21 04:53:00
11:53 PM,30.0,19.0,64,29.86,10.0,South,4.6,-,N/A,,Clear,170,2012-10-21 05:53:00